Wetterdaten: Dienstag, 04.06.2013
Datum Zeit Temperatur Luftfeuchte Luftdruck Regen Wind Richtung Richtung Taupunkt Windchill Windben
04.06.2013 00:00 3,5 C 97 % 1023,2 hPa 0,0 l/m 0,0 km/h (0 Bft) O-SO 112 3,1 C 3,2 C 0,0 km/h (0 Bft)
04.06.2013 00:05 3,5 C 97 % 1023,2 hPa 0,0 l/m 0,0 km/h (0 Bft) W-NW 292 3,1 C 3,3 C 0,0 km/h (0 Bft)
04.06.2013 00:10 3,5 C 97 % 1023,2 hPa 0,0 l/m 0,0 km/h (0 Bft) SW 225 3,1 C 3,3 C 0,0 km/h (0 Bft)
04.06.2013 00:15 3,5 C 97 % 1023,2 hPa 0,0 l/m 0,0 km/h (0 Bft) S 180 3,1 C 3,3 C 0,0 km/h (0 Bft)
04.06.2013 00:20 3,6 C 97 % 1023,1 hPa 0,0 l/m 0,0 km/h (0 Bft) S 180 3,2 C 3,3 C 0,0 km/h (0 Bft)
04.06.2013 00:25 3,6 C 97 % 1023,1 hPa 0,0 l/m 0,0 km/h (0 Bft) SO 135 3,2 C 3,3 C 0,0 km/h (0 Bft)
04.06.2013 00:30 3,5 C 97 % 1023,1 hPa 0,0 l/m 0,2 km/h (0 Bft) NO 45 3,1 C 3,3 C 0,0 km/h (0 Bft)
04.06.2013 00:35 3,6 C 97 % 1023,1 hPa 0,0 l/m 0,2 km/h (0 Bft) S-SO 157 3,2 C 3,4 C 0,0 km/h (0 Bft)
04.06.2013 00:40 3,6 C 97 % 1023,0 hPa 0,0 l/m 0,0 km/h (0 Bft) O-NO 67 3,2 C 3,4 C 0,0 km/h (0 Bft)
04.06.2013 00:45 3,6 C 97 % 1023,0 hPa 0,0 l/m 0,2 km/h (0 Bft) O-SO 112 3,2 C 3,4 C 1,8 km/h (1 Bft)
04.06.2013 00:50 3,6 C 97 % 1023,0 hPa 0,0 l/m 0,3 km/h (0 Bft) O-SO 112 3,2 C 3,4 C 0,0 km/h (0 Bft)
04.06.2013 00:55 3,6 C 97 % 1023,0 hPa 0,0 l/m 0,3 km/h (0 Bft) S-SW 202 3,2 C 3,4 C 0,0 km/h (0 Bft)
04.06.2013 01:00 3,6 C 97 % 1023,0 hPa 0,0 l/m 0,0 km/h (0 Bft) S 180 3,2 C 3,5 C 0,0 km/h (0 Bft)
04.06.2013 01:05 3,7 C 97 % 1023,0 hPa 0,7 l/m 0,0 km/h (0 Bft) NO 45 3,3 C 3,5 C 0,0 km/h (0 Bft)
04.06.2013 01:10 3,7 C 97 % 1023,0 hPa 0,0 l/m 0,0 km/h (0 Bft) S 180 3,3 C 3,5 C 0,0 km/h (0 Bft)
04.06.2013 01:15 3,7 C 97 % 1023,0 hPa 0,0 l/m 0,0 km/h (0 Bft) N-NW 337 3,3 C 3,5 C 0,0 km/h (0 Bft)
04.06.2013 01:20 3,7 C 97 % 1022,7 hPa 0,0 l/m 0,0 km/h (0 Bft) N-NW 337 3,3 C 3,5 C 0,0 km/h (0 Bft)
04.06.2013 01:25 3,7 C 97 % 1022,7 hPa 0,0 l/m 0,0 km/h (0 Bft) O 90 3,3 C 3,6 C 0,0 km/h (0 Bft)
04.06.2013 01:30 3,8 C 97 % 1022,7 hPa 0,0 l/m 0,0 km/h (0 Bft) S-SW 202 3,4 C 3,6 C 0,0 km/h (0 Bft)
04.06.2013 01:35 3,8 C 97 % 1022,7 hPa 0,0 l/m 0,0 km/h (0 Bft) O 90 3,4 C 3,6 C 0,0 km/h (0 Bft)
04.06.2013 01:40 3,8 C 97 % 1022,3 hPa 0,0 l/m 0,0 km/h (0 Bft) SW 225 3,4 C 3,6 C 0,0 km/h (0 Bft)
04.06.2013 01:45 3,8 C 97 % 1022,3 hPa 0,0 l/m 0,0 km/h (0 Bft) NW 315 3,4 C 3,6 C 0,0 km/h (0 Bft)
04.06.2013 01:50 3,8 C 97 % 1022,3 hPa 0,0 l/m 0,0 km/h (0 Bft) S 180 3,4 C 3,6 C 0,0 km/h (0 Bft)
04.06.2013 01:55 3,8 C 97 % 1022,3 hPa 0,0 l/m 0,0 km/h (0 Bft) O-SO 112 3,4 C 3,7 C 0,0 km/h (0 Bft)
04.06.2013 02:00 3,8 C 97 % 1022,2 hPa 0,0 l/m 0,0 km/h (0 Bft) S 180 3,4 C 3,7 C 0,0 km/h (0 Bft)
04.06.2013 02:05 3,8 C 97 % 1022,2 hPa 0,0 l/m 0,0 km/h (0 Bft) W-NW 292 3,4 C 3,7 C 2,1 km/h (1 Bft)
04.06.2013 02:10 3,9 C 97 % 1022,2 hPa 0,0 l/m 0,2 km/h (0 Bft) S 180 3,5 C 3,6 C 0,0 km/h (0 Bft)
04.06.2013 02:15 3,9 C 97 % 1022,2 hPa 0,0 l/m 0,2 km/h (0 Bft) O-SO 112 3,5 C 3,6 C 0,0 km/h (0 Bft)
04.06.2013 02:20 3,9 C 97 % 1021,9 hPa 0,0 l/m 0,0 km/h (0 Bft) N 360 3,5 C 3,7 C 0,0 km/h (0 Bft)
04.06.2013 02:25 3,9 C 97 % 1021,9 hPa 0,0 l/m 0,0 km/h (0 Bft) W-SW 247 3,5 C 3,7 C 0,0 km/h (0 Bft)
04.06.2013 02:30 3,9 C 97 % 1021,9 hPa 0,0 l/m 0,2 km/h (0 Bft) NO 45 3,5 C 3,7 C 2,3 km/h (1 Bft)
04.06.2013 02:35 4,0 C 97 % 1021,9 hPa 0,0 l/m 0,8 km/h (0 Bft) O-NO 67 3,6 C 3,7 C 1,9 km/h (1 Bft)
04.06.2013 02:40 4,0 C 97 % 1022,0 hPa 0,0 l/m 0,8 km/h (0 Bft) N 360 3,6 C 3,8 C 0,0 km/h (0 Bft)
04.06.2013 02:45 4,0 C 97 % 1022,0 hPa 0,0 l/m 0,0 km/h (0 Bft) W-NW 292 3,6 C 3,8 C 0,0 km/h (0 Bft)
04.06.2013 02:50 4,0 C 97 % 1022,0 hPa 0,0 l/m 0,0 km/h (0 Bft) O-NO 67 3,6 C 3,8 C 0,0 km/h (0 Bft)
04.06.2013 02:55 4,0 C 97 % 1022,0 hPa 0,0 l/m 0,0 km/h (0 Bft) O 90 3,6 C 3,8 C 0,0 km/h (0 Bft)
04.06.2013 03:00 4,0 C 97 % 1021,8 hPa 0,0 l/m 0,0 km/h (0 Bft) O-SO 112 3,6 C 3,8 C 0,0 km/h (0 Bft)
04.06.2013 03:05 4,0 C 97 % 1021,8 hPa 0,0 l/m 0,0 km/h (0 Bft) W 270 3,6 C 3,8 C 0,0 km/h (0 Bft)
04.06.2013 03:10 4,0 C 97 % 1021,8 hPa 0,0 l/m 0,0 km/h (0 Bft) NO 45 3,6 C 3,8 C 0,0 km/h (0 Bft)
04.06.2013 03:15 4,0 C 97 % 1021,8 hPa 0,0 l/m 0,0 km/h (0 Bft) O 90 3,6 C 3,8 C 0,0 km/h (0 Bft)
04.06.2013 03:20 4,0 C 97 % 1021,7 hPa 0,0 l/m 0,0 km/h (0 Bft) NO 45 3,6 C 3,8 C 0,0 km/h (0 Bft)
04.06.2013 03:25 4,0 C 97 % 1021,7 hPa 0,0 l/m 0,0 km/h (0 Bft) O-NO 67 3,6 C 3,8 C 0,0 km/h (0 Bft)
04.06.2013 03:30 4,0 C 97 % 1021,7 hPa 0,0 l/m 0,0 km/h (0 Bft) O 90 3,6 C 3,9 C 0,0 km/h (0 Bft)
04.06.2013 03:35 4,1 C 97 % 1021,7 hPa 0,0 l/m 0,0 km/h (0 Bft) NO 45 3,7 C 3,9 C 0,0 km/h (0 Bft)
04.06.2013 03:40 4,1 C 97 % 1021,3 hPa 0,0 l/m 0,0 km/h (0 Bft) O 90 3,7 C 3,9 C 0,0 km/h (0 Bft)
04.06.2013 03:45 4,1 C 97 % 1021,3 hPa 0,0 l/m 0,0 km/h (0 Bft) O-SO 112 3,7 C 3,9 C 0,0 km/h (0 Bft)
04.06.2013 03:50 4,1 C 97 % 1021,3 hPa 0,0 l/m 0,0 km/h (0 Bft) N 360 3,7 C 3,9 C 0,0 km/h (0 Bft)
04.06.2013 03:55 4,1 C 97 % 1021,3 hPa 0,0 l/m 0,0 km/h (0 Bft) NO 45 3,7 C 3,9 C 0,0 km/h (0 Bft)
04.06.2013 04:00 4,1 C 97 % 1021,2 hPa 0,0 l/m 0,0 km/h (0 Bft) NO 45 3,7 C 4,0 C 0,0 km/h (0 Bft)
04.06.2013 04:05 4,2 C 97 % 1021,2 hPa 0,0 l/m 0,0 km/h (0 Bft) O-SO 112 3,8 C 4,0 C 0,0 km/h (0 Bft)
04.06.2013 04:10 4,2 C 97 % 1021,2 hPa 0,0 l/m 0,0 km/h (0 Bft) W 270 3,8 C 4,0 C 0,0 km/h (0 Bft)
04.06.2013 04:15 4,2 C 97 % 1021,2 hPa 0,0 l/m 0,0 km/h (0 Bft) N 360 3,8 C 4,0 C 0,0 km/h (0 Bft)
04.06.2013 04:20 4,2 C 97 % 1021,0 hPa 0,0 l/m 0,0 km/h (0 Bft) N 360 3,8 C 4,0 C 0,0 km/h (0 Bft)
04.06.2013 04:25 4,2 C 97 % 1021,0 hPa 0,0 l/m 0,0 km/h (0 Bft) O 90 3,8 C 4,0 C 0,0 km/h (0 Bft)
04.06.2013 04:30 4,2 C 97 % 1021,0 hPa 0,0 l/m 0,0 km/h (0 Bft) NO 45 3,8 C 4,0 C 0,0 km/h (0 Bft)
04.06.2013 04:35 4,2 C 97 % 1021,0 hPa 0,0 l/m 0,0 km/h (0 Bft) W-SW 247 3,8 C 4,0 C 0,0 km/h (0 Bft)
04.06.2013 04:40 4,2 C 97 % 1021,0 hPa 0,0 l/m 0,0 km/h (0 Bft) W 270 3,8 C 4,1 C 0,0 km/h (0 Bft)
04.06.2013 04:45 4,2 C 97 % 1021,0 hPa 0,0 l/m 0,0 km/h (0 Bft) O-NO 67 3,8 C 4,0 C 0,0 km/h (0 Bft)
04.06.2013 04:50 4,2 C 97 % 1021,0 hPa 0,0 l/m 0,0 km/h (0 Bft) NO 45 3,8 C 4,0 C 0,0 km/h (0 Bft)
04.06.2013 04:55 4,2 C 97 % 1021,0 hPa 0,0 l/m 0,0 km/h (0 Bft) N-NW 337 3,8 C 4,0 C 0,0 km/h (0 Bft)
04.06.2013 05:00 4,3 C 97 % 1021,0 hPa 0,0 l/m 0,0 km/h (0 Bft) W-NW 292 3,9 C 4,1 C 0,0 km/h (0 Bft)
04.06.2013 05:05 4,3 C 97 % 1021,0 hPa 0,0 l/m 0,0 km/h (0 Bft) O-SO 112 3,9 C 4,1 C 0,0 km/h (0 Bft)
04.06.2013 05:10 4,3 C 97 % 1021,0 hPa 0,0 l/m 0,0 km/h (0 Bft) SO 135 3,9 C 4,1 C 0,0 km/h (0 Bft)
04.06.2013 05:15 4,3 C 97 % 1021,0 hPa 0,0 l/m 0,0 km/h (0 Bft) O 90 3,9 C 4,2 C 0,0 km/h (0 Bft)
04.06.2013 05:20 4,3 C 97 % 1020,9 hPa 0,0 l/m 0,0 km/h (0 Bft) W-NW 292 3,9 C 4,2 C 0,0 km/h (0 Bft)
04.06.2013 05:25 4,4 C 97 % 1020,9 hPa 0,0 l/m 0,2 km/h (0 Bft) SO 135 4,0 C 4,2 C 0,0 km/h (0 Bft)
04.06.2013 05:30 4,4 C 97 % 1020,9 hPa 0,0 l/m 0,2 km/h (0 Bft) O-SO 112 4,0 C 4,3 C 0,0 km/h (0 Bft)
04.06.2013 05:35 4,4 C 97 % 1020,9 hPa 0,0 l/m 0,0 km/h (0 Bft) W-SW 247 4,0 C 4,3 C 0,0 km/h (0 Bft)
04.06.2013 05:40 4,4 C 97 % 1021,3 hPa 0,0 l/m 0,0 km/h (0 Bft) W-NW 292 4,0 C 4,3 C 0,0 km/h (0 Bft)
04.06.2013 05:45 4,5 C 97 % 1021,3 hPa 0,0 l/m 0,0 km/h (0 Bft) N 360 4,1 C 4,4 C 0,0 km/h (0 Bft)
04.06.2013 05:50 4,5 C 97 % 1021,3 hPa 0,0 l/m 0,0 km/h (0 Bft) N 360 4,1 C 4,4 C 0,0 km/h (0 Bft)
04.06.2013 05:55 4,5 C 97 % 1021,3 hPa 0,0 l/m 0,0 km/h (0 Bft) W-NW 292 4,1 C 4,5 C 0,0 km/h (0 Bft)
04.06.2013 06:00 4,6 C 97 % 1022,1 hPa 0,0 l/m 0,0 km/h (0 Bft) O 90 4,2 C 4,5 C 0,0 km/h (0 Bft)
04.06.2013 06:05 4,6 C 97 % 1022,1 hPa 0,0 l/m 0,0 km/h (0 Bft) W-NW 292 4,2 C 4,6 C 0,0 km/h (0 Bft)
04.06.2013 06:10 4,7 C 97 % 1022,1 hPa 0,0 l/m 0,0 km/h (0 Bft) N 360 4,3 C 4,6 C 0,0 km/h (0 Bft)
04.06.2013 06:15 5,0 C 97 % 1022,1 hPa 0,0 l/m 0,0 km/h (0 Bft) O 90 4,6 C 4,8 C 0,0 km/h (0 Bft)
04.06.2013 06:20 5,0 C 97 % 1022,1 hPa 0,0 l/m 0,0 km/h (0 Bft) W 270 4,6 C 5,0 C 0,0 km/h (0 Bft)
04.06.2013 06:25 5,3 C 97 % 1022,1 hPa 0,0 l/m 0,0 km/h (0 Bft) W-SW 247 4,9 C 5,2 C 0,0 km/h (0 Bft)
04.06.2013 06:30 5,1 C 97 % 1022,1 hPa 0,0 l/m 0,0 km/h (0 Bft) SO 135 4,7 C 5,3 C 0,0 km/h (0 Bft)
04.06.2013 06:35 5,0 C 97 % 1022,1 hPa 0,0 l/m 0,0 km/h (0 Bft) W-SW 247 4,6 C 5,1 C 0,0 km/h (0 Bft)
04.06.2013 06:40 5,1 C 97 % 1022,0 hPa 0,0 l/m 0,0 km/h (0 Bft) W-NW 292 4,7 C 5,1 C 0,0 km/h (0 Bft)
04.06.2013 06:45 5,3 C 97 % 1022,0 hPa 0,0 l/m 0,0 km/h (0 Bft) W-NW 292 4,9 C 5,2 C 0,0 km/h (0 Bft)
04.06.2013 06:50 5,6 C 97 % 1022,0 hPa 0,0 l/m 0,2 km/h (0 Bft) W 270 5,2 C 5,5 C 2,7 km/h (1 Bft)
04.06.2013 06:55 5,7 C 97 % 1022,0 hPa 0,0 l/m 0,6 km/h (0 Bft) W-NW 292 5,3 C 5,7 C 0,0 km/h (0 Bft)
04.06.2013 07:00 6,1 C 96 % 1022,1 hPa 0,0 l/m 0,6 km/h (0 Bft) O 90 5,5 C 6,0 C 0,0 km/h (0 Bft)
04.06.2013 07:05 6,4 C 96 % 1022,1 hPa 0,0 l/m 0,0 km/h (0 Bft) S-SO 157 5,8 C 6,4 C 0,0 km/h (0 Bft)
04.06.2013 07:10 6,5 C 96 % 1022,1 hPa 0,0 l/m 0,0 km/h (0 Bft) S-SW 202 5,9 C 6,6 C 0,0 km/h (0 Bft)
04.06.2013 07:15 8,3 C 96 % 1022,1 hPa 0,0 l/m 0,0 km/h (0 Bft) W-SW 247 7,7 C 8,2 C 0,0 km/h (0 Bft)
04.06.2013 07:20 8,6 C 96 % 1021,6 hPa 0,0 l/m 0,0 km/h (0 Bft) W-SW 247 8,0 C 8,5 C 1,8 km/h (1 Bft)
04.06.2013 07:25 6,5 C 96 % 1021,6 hPa 0,0 l/m 1,6 km/h (1 Bft) W 270 5,9 C 8,0 C 2,4 km/h (1 Bft)
04.06.2013 07:30 6,4 C 96 % 1021,6 hPa 0,0 l/m 1,8 km/h (1 Bft) SO 135 5,8 C 7,5 C 5,5 km/h (1 Bft)
04.06.2013 07:35 6,5 C 96 % 1021,6 hPa 0,0 l/m 0,3 km/h (0 Bft) S-SO 157 5,9 C 7,5 C 0,0 km/h (0 Bft)
04.06.2013 07:40 6,7 C 96 % 1021,8 hPa 0,0 l/m 0,0 km/h (0 Bft) N-NO 22 6,1 C 7,7 C 0,0 km/h (0 Bft)
04.06.2013 07:45 6,5 C 96 % 1021,8 hPa 0,0 l/m 1,3 km/h (1 Bft) W-NW 292 5,9 C 7,4 C 2,3 km/h (1 Bft)
04.06.2013 07:50 6,4 C 96 % 1021,8 hPa 0,0 l/m 1,6 km/h (1 Bft) W-NW 292 5,8 C 7,2 C 3,2 km/h (1 Bft)
04.06.2013 07:55 6,4 C 96 % 1021,8 hPa 0,0 l/m 1,1 km/h (1 Bft) W-NW 292 5,8 C 7,0 C 2,1 km/h (1 Bft)
04.06.2013 08:00 6,7 C 96 % 1021,8 hPa 0,0 l/m 0,8 km/h (0 Bft) W-SW 247 6,1 C 7,1 C 0,0 km/h (0 Bft)
04.06.2013 08:05 6,8 C 96 % 1021,8 hPa 0,0 l/m 0,2 km/h (0 Bft) W-NW 292 6,2 C 7,4 C 0,0 km/h (0 Bft)
04.06.2013 08:10 6,9 C 96 % 1021,8 hPa 0,0 l/m 0,0 km/h (0 Bft) NW 315 6,3 C 7,5 C 0,0 km/h (0 Bft)
04.06.2013 08:15 6,8 C 96 % 1021,8 hPa 0,0 l/m 0,0 km/h (0 Bft) W-NW 292 6,2 C 7,9 C 0,0 km/h (0 Bft)
04.06.2013 08:20 7,1 C 95 % 1021,7 hPa 0,0 l/m 0,0 km/h (0 Bft) S-SO 157 6,4 C 8,1 C 0,0 km/h (0 Bft)
04.06.2013 08:25 7,1 C 95 % 1021,7 hPa 0,0 l/m 0,0 km/h (0 Bft) W-NW 292 6,4 C 8,3 C 0,0 km/h (0 Bft)
04.06.2013 08:30 7,6 C 95 % 1021,7 hPa 0,0 l/m 0,8 km/h (0 Bft) NW 315 6,9 C 8,4 C 3,2 km/h (1 Bft)
04.06.2013 08:35 8,6 C 95 % 1021,7 hPa 0,0 l/m 1,8 km/h (1 Bft) W-SW 247 7,8 C 9,1 C 2,7 km/h (1 Bft)
04.06.2013 08:40 10,5 C 94 % 1021,8 hPa 0,0 l/m 1,9 km/h (1 Bft) W-NW 292 9,6 C 10,1 C 3,7 km/h (1 Bft)
04.06.2013 08:45 9,9 C 93 % 1021,8 hPa 0,0 l/m 1,6 km/h (1 Bft) W 270 8,8 C 11,6 C 2,9 km/h (1 Bft)
04.06.2013 08:50 9,3 C 92 % 1021,8 hPa 0,0 l/m 2,3 km/h (1 Bft) W 270 8,1 C 11,2 C 4,0 km/h (1 Bft)
04.06.2013 08:55 9,9 C 90 % 1021,8 hPa 0,0 l/m 2,4 km/h (1 Bft) W 270 8,3 C 10,5 C 3,4 km/h (1 Bft)
04.06.2013 09:00 12,3 C 85 % 1021,8 hPa 0,0 l/m 2,3 km/h (1 Bft) N-NW 337 9,9 C 11,4 C 3,1 km/h (1 Bft)
04.06.2013 09:05 11,5 C 82 % 1021,8 hPa 0,0 l/m 2,4 km/h (1 Bft) W-NW 292 8,5 C 12,5 C 4,3 km/h (1 Bft)
04.06.2013 09:10 10,5 C 82 % 1021,8 hPa 0,0 l/m 2,9 km/h (1 Bft) NO 45 7,6 C 12,3 C 3,1 km/h (1 Bft)
04.06.2013 09:15 9,5 C 83 % 1021,8 hPa 0,0 l/m 3,1 km/h (1 Bft) W-NW 292 6,8 C 11,3 C 2,9 km/h (1 Bft)
04.06.2013 09:20 10,5 C 82 % 1021,8 hPa 0,0 l/m 2,9 km/h (1 Bft) W-NW 292 7,6 C 11,2 C 6,1 km/h (2 Bft)
04.06.2013 09:25 12,0 C 76 % 1021,8 hPa 0,0 l/m 3,4 km/h (1 Bft) N 360 7,9 C 12,5 C 7,9 km/h (2 Bft)
04.06.2013 09:30 12,5 C 75 % 1021,8 hPa 0,0 l/m 3,7 km/h (1 Bft) S-SW 202 8,2 C 13,2 C 8,9 km/h (2 Bft)
04.06.2013 09:35 11,6 C 73 % 1021,8 hPa 0,0 l/m 4,2 km/h (1 Bft) SW 225 6,9 C 14,1 C 8,0 km/h (2 Bft)
04.06.2013 09:40 11,1 C 76 % 1021,9 hPa 0,0 l/m 3,5 km/h (1 Bft) W-SW 247 7,0 C 13,3 C 9,3 km/h (2 Bft)
04.06.2013 09:45 12,5 C 72 % 1021,9 hPa 0,0 l/m 4,0 km/h (1 Bft) N-NW 337 7,6 C 13,9 C 4,5 km/h (1 Bft)
04.06.2013 09:50 12,9 C 72 % 1021,9 hPa 0,0 l/m 4,3 km/h (1 Bft) N-NW 337 8,0 C 14,4 C 5,5 km/h (1 Bft)
04.06.2013 09:55 11,0 C 74 % 1021,9 hPa 0,0 l/m 4,3 km/h (1 Bft) N-NW 337 6,5 C 13,8 C 6,6 km/h (2 Bft)
04.06.2013 10:00 11,0 C 76 % 1022,2 hPa 0,0 l/m 4,2 km/h (1 Bft) N-NO 22 6,9 C 13,2 C 9,5 km/h (2 Bft)
04.06.2013 10:05 11,1 C 74 % 1022,2 hPa 0,0 l/m 4,3 km/h (1 Bft) W-NW 292 6,6 C 13,0 C 2,9 km/h (1 Bft)
04.06.2013 10:10 11,3 C 75 % 1022,2 hPa 0,0 l/m 4,0 km/h (1 Bft) N-NW 337 7,0 C 13,1 C 3,7 km/h (1 Bft)
04.06.2013 10:15 12,2 C 72 % 1022,2 hPa 0,0 l/m 4,0 km/h (1 Bft) W-NW 292 7,3 C 13,6 C 5,0 km/h (1 Bft)
04.06.2013 10:20 11,6 C 69 % 1022,0 hPa 0,0 l/m 4,0 km/h (1 Bft) N-NW 337 6,1 C 13,7 C 0,0 km/h (0 Bft)
04.06.2013 10:25 11,1 C 72 % 1022,0 hPa 0,0 l/m 4,2 km/h (1 Bft) NW 315 6,2 C 13,5 C 4,2 km/h (1 Bft)
04.06.2013 10:30 11,3 C 73 % 1022,0 hPa 0,0 l/m 4,2 km/h (1 Bft) W-SW 247 6,6 C 13,2 C 3,1 km/h (1 Bft)
04.06.2013 10:35 11,1 C 76 % 1022,0 hPa 0,0 l/m 5,0 km/h (1 Bft) O-SO 112 7,0 C 13,0 C 5,8 km/h (2 Bft)
04.06.2013 10:40 10,8 C 76 % 1021,9 hPa 0,0 l/m 5,0 km/h (1 Bft) N-NW 337 6,7 C 12,5 C 6,1 km/h (2 Bft)
04.06.2013 10:45 10,7 C 74 % 1021,9 hPa 0,0 l/m 4,2 km/h (1 Bft) N-NW 337 6,3 C 12,3 C 6,1 km/h (2 Bft)
04.06.2013 10:50 10,6 C 75 % 1021,9 hPa 0,0 l/m 4,8 km/h (1 Bft) NW 315 6,4 C 12,1 C 9,8 km/h (2 Bft)
04.06.2013 10:55 10,3 C 76 % 1021,9 hPa 0,0 l/m 6,0 km/h (2 Bft) W-NW 292 6,3 C 11,3 C 6,4 km/h (2 Bft)
04.06.2013 11:00 10,4 C 75 % 1022,1 hPa 0,0 l/m 5,6 km/h (1 Bft) O 90 6,2 C 11,3 C 9,8 km/h (2 Bft)
04.06.2013 11:05 10,2 C 78 % 1022,1 hPa 0,0 l/m 5,0 km/h (1 Bft) NW 315 6,5 C 11,2 C 4,3 km/h (1 Bft)
04.06.2013 11:10 10,1 C 76 % 1022,1 hPa 0,0 l/m 5,5 km/h (1 Bft) W 270 6,1 C 11,0 C 10,1 km/h (2 Bft)
04.06.2013 11:15 10,2 C 78 % 1022,1 hPa 0,0 l/m 5,8 km/h (2 Bft) W-NW 292 6,5 C 10,8 C 7,1 km/h (2 Bft)
04.06.2013 11:20 10,1 C 77 % 1022,1 hPa 0,0 l/m 5,8 km/h (2 Bft) N-NW 337 6,3 C 10,7 C 6,6 km/h (2 Bft)
04.06.2013 11:25 10,0 C 79 % 1022,1 hPa 0,0 l/m 4,8 km/h (1 Bft) W-NW 292 6,5 C 10,8 C 5,1 km/h (1 Bft)
04.06.2013 11:30 9,8 C 80 % 1022,1 hPa 0,0 l/m 4,5 km/h (1 Bft) N 360 6,5 C 10,8 C 3,5 km/h (1 Bft)
04.06.2013 11:35 9,7 C 81 % 1022,1 hPa 0,0 l/m 2,6 km/h (1 Bft) N 360 6,6 C 10,6 C 3,7 km/h (1 Bft)
04.06.2013 11:40 9,5 C 81 % 1022,0 hPa 0,0 l/m 2,1 km/h (1 Bft) N 360 6,4 C 10,5 C 4,7 km/h (1 Bft)
04.06.2013 11:45 9,3 C 82 % 1022,0 hPa 0,0 l/m 3,1 km/h (1 Bft) W-NW 292 6,4 C 10,2 C 3,9 km/h (1 Bft)
04.06.2013 11:50 9,3 C 81 % 1022,0 hPa 0,0 l/m 3,5 km/h (1 Bft) W 270 6,2 C 10,0 C 4,0 km/h (1 Bft)
04.06.2013 11:55 9,1 C 81 % 1022,0 hPa 0,0 l/m 4,3 km/h (1 Bft) W-NW 292 6,0 C 9,7 C 5,5 km/h (1 Bft)
04.06.2013 12:00 9,4 C 83 % 1021,4 hPa 0,0 l/m 4,5 km/h (1 Bft) W-NW 292 6,7 C 9,7 C 7,1 km/h (2 Bft)
04.06.2013 12:05 9,3 C 82 % 1021,4 hPa 0,0 l/m 4,5 km/h (1 Bft) N-NW 337 6,4 C 9,6 C 4,8 km/h (1 Bft)
04.06.2013 12:10 9,4 C 83 % 1021,4 hPa 0,0 l/m 4,7 km/h (1 Bft) NO 45 6,7 C 9,6 C 4,8 km/h (1 Bft)
04.06.2013 12:15 9,4 C 83 % 1021,4 hPa 0,0 l/m 4,3 km/h (1 Bft) W 270 6,7 C 9,8 C 5,5 km/h (1 Bft)
04.06.2013 12:20 9,3 C 83 % 1021,8 hPa 0,0 l/m 4,3 km/h (1 Bft) N-NW 337 6,6 C 9,8 C 10,5 km/h (2 Bft)
04.06.2013 12:25 9,3 C 83 % 1021,8 hPa 0,0 l/m 4,3 km/h (1 Bft) N-NO 22 6,6 C 9,7 C 6,9 km/h (2 Bft)
04.06.2013 12:30 9,4 C 83 % 1021,8 hPa 0,0 l/m 3,7 km/h (1 Bft) W-NW 292 6,7 C 9,9 C 3,9 km/h (1 Bft)
04.06.2013 12:35 9,2 C 83 % 1021,8 hPa 0,0 l/m 3,2 km/h (1 Bft) W-NW 292 6,5 C 9,8 C 3,5 km/h (1 Bft)
04.06.2013 12:40 9,3 C 83 % 1021,7 hPa 0,0 l/m 3,5 km/h (1 Bft) N-NW 337 6,6 C 9,9 C 4,8 km/h (1 Bft)
04.06.2013 12:45 9,2 C 82 % 1021,7 hPa 0,0 l/m 4,3 km/h (1 Bft) N 360 6,3 C 9,8 C 4,3 km/h (1 Bft)
04.06.2013 12:50 9,6 C 82 % 1021,7 hPa 0,0 l/m 5,0 km/h (1 Bft) W-NW 292 6,7 C 9,6 C 10,6 km/h (2 Bft)
04.06.2013 12:55 10,7 C 82 % 1021,7 hPa 0,0 l/m 4,3 km/h (1 Bft) NW 315 7,8 C 10,5 C 5,6 km/h (1 Bft)
04.06.2013 13:00 10,7 C 78 % 1021,5 hPa 0,0 l/m 4,3 km/h (1 Bft) N 360 7,0 C 11,2 C 3,9 km/h (1 Bft)
04.06.2013 13:05 11,5 C 75 % 1021,5 hPa 0,0 l/m 4,0 km/h (1 Bft) N-NW 337 7,2 C 12,6 C 4,5 km/h (1 Bft)
04.06.2013 13:10 11,5 C 73 % 1021,5 hPa 0,0 l/m 4,5 km/h (1 Bft) N 360 6,8 C 13,3 C 6,0 km/h (2 Bft)
04.06.2013 13:15 11,6 C 73 % 1021,5 hPa 0,0 l/m 5,3 km/h (1 Bft) NW 315 6,9 C 13,6 C 5,1 km/h (1 Bft)
04.06.2013 13:20 11,3 C 74 % 1021,8 hPa 0,0 l/m 4,5 km/h (1 Bft) W-NW 292 6,8 C 13,4 C 5,8 km/h (2 Bft)
04.06.2013 13:25 11,3 C 75 % 1021,8 hPa 0,0 l/m 4,3 km/h (1 Bft) NW 315 7,0 C 13,1 C 5,5 km/h (1 Bft)
04.06.2013 13:30 11,2 C 75 % 1021,8 hPa 0,0 l/m 4,5 km/h (1 Bft) W 270 6,9 C 12,9 C 5,3 km/h (1 Bft)
04.06.2013 13:35 11,1 C 75 % 1021,8 hPa 0,0 l/m 4,8 km/h (1 Bft) N-NW 337 6,8 C 12,4 C 7,4 km/h (2 Bft)
04.06.2013 13:40 11,4 C 74 % 1021,4 hPa 0,0 l/m 4,8 km/h (1 Bft) W-NW 292 6,9 C 12,6 C 7,2 km/h (2 Bft)
04.06.2013 13:45 11,4 C 72 % 1021,4 hPa 0,0 l/m 4,7 km/h (1 Bft) N-NW 337 6,5 C 13,1 C 5,1 km/h (1 Bft)
04.06.2013 13:50 11,6 C 74 % 1021,4 hPa 0,0 l/m 4,2 km/h (1 Bft) NW 315 7,1 C 13,4 C 5,0 km/h (1 Bft)
04.06.2013 13:55 11,8 C 75 % 1021,4 hPa 0,0 l/m 3,1 km/h (1 Bft) O-NO 67 7,5 C 13,6 C 1,8 km/h (1 Bft)
04.06.2013 14:00 12,4 C 75 % 1021,5 hPa 0,0 l/m 2,9 km/h (1 Bft) N-NO 22 8,1 C 14,0 C 4,3 km/h (1 Bft)
04.06.2013 14:05 12,5 C 72 % 1021,5 hPa 0,0 l/m 2,3 km/h (1 Bft) SW 225 7,6 C 14,5 C 0,0 km/h (0 Bft)
04.06.2013 14:10 14,1 C 71 % 1021,5 hPa 0,0 l/m 1,8 km/h (1 Bft) W 270 8,9 C 15,3 C 3,9 km/h (1 Bft)
04.06.2013 14:15 14,8 C 67 % 1021,5 hPa 0,0 l/m 2,1 km/h (1 Bft) O-SO 112 8,7 C 16,5 C 2,6 km/h (1 Bft)
04.06.2013 14:20 14,1 C 65 % 1021,3 hPa 0,0 l/m 2,7 km/h (1 Bft) W 270 7,6 C 16,9 C 1,9 km/h (1 Bft)
04.06.2013 14:25 14,5 C 67 % 1021,3 hPa 0,0 l/m 2,3 km/h (1 Bft) W-NW 292 8,4 C 17,1 C 4,8 km/h (1 Bft)
04.06.2013 14:30 14,1 C 67 % 1021,3 hPa 0,0 l/m 2,7 km/h (1 Bft) W-NW 292 8,1 C 16,7 C 2,1 km/h (1 Bft)
04.06.2013 14:35 13,8 C 68 % 1021,3 hPa 0,0 l/m 3,7 km/h (1 Bft) W-SW 247 8,0 C 16,1 C 3,5 km/h (1 Bft)
04.06.2013 14:40 13,9 C 68 % 1021,2 hPa 0,0 l/m 2,7 km/h (1 Bft) W-SW 247 8,1 C 15,9 C 2,6 km/h (1 Bft)
04.06.2013 14:45 14,3 C 65 % 1021,2 hPa 0,0 l/m 2,6 km/h (1 Bft) N 360 7,8 C 16,1 C 4,8 km/h (1 Bft)
04.06.2013 14:50 14,3 C 65 % 1021,2 hPa 0,0 l/m 3,5 km/h (1 Bft) W-NW 292 7,8 C 16,0 C 6,4 km/h (2 Bft)
04.06.2013 14:55 15,2 C 65 % 1021,2 hPa 0,0 l/m 4,8 km/h (1 Bft) W-NW 292 8,7 C 16,2 C 4,2 km/h (1 Bft)
04.06.2013 15:00 15,3 C 61 % 1021,3 hPa 0,0 l/m 5,5 km/h (1 Bft) NW 315 7,8 C 16,9 C 5,8 km/h (2 Bft)
04.06.2013 15:05 14,9 C 64 % 1021,3 hPa 0,0 l/m 5,3 km/h (1 Bft) NW 315 8,2 C 16,7 C 2,9 km/h (1 Bft)
04.06.2013 15:10 15,0 C 65 % 1021,3 hPa 0,0 l/m 5,3 km/h (1 Bft) W-NW 292 8,5 C 16,7 C 6,0 km/h (2 Bft)
04.06.2013 15:15 15,1 C 62 % 1021,3 hPa 0,0 l/m 5,3 km/h (1 Bft) S 180 7,9 C 16,7 C 3,1 km/h (1 Bft)
04.06.2013 15:20 15,6 C 62 % 1021,2 hPa 0,0 l/m 5,6 km/h (1 Bft) W-NW 292 8,3 C 17,2 C 11,3 km/h (2 Bft)
04.06.2013 15:25 15,7 C 60 % 1021,2 hPa 0,0 l/m 4,8 km/h (1 Bft) NO 45 8,0 C 17,5 C 5,3 km/h (1 Bft)
04.06.2013 15:30 15,2 C 59 % 1021,2 hPa 0,0 l/m 5,0 km/h (1 Bft) W 270 7,2 C 17,6 C 7,2 km/h (2 Bft)
04.06.2013 15:35 15,4 C 63 % 1021,2 hPa 0,0 l/m 5,0 km/h (1 Bft) W-NW 292 8,4 C 17,1 C 5,3 km/h (1 Bft)
04.06.2013 15:40 15,0 C 62 % 1021,3 hPa 0,0 l/m 5,1 km/h (1 Bft) N-NW 337 7,8 C 16,9 C 11,6 km/h (2 Bft)
04.06.2013 15:45 14,9 C 62 % 1021,3 hPa 0,0 l/m 4,5 km/h (1 Bft) N-NW 337 7,7 C 16,8 C 8,2 km/h (2 Bft)
04.06.2013 15:50 15,1 C 62 % 1021,3 hPa 0,0 l/m 4,2 km/h (1 Bft) W-NW 292 7,9 C 16,9 C 8,2 km/h (2 Bft)
04.06.2013 15:55 14,9 C 61 % 1021,3 hPa 0,0 l/m 4,7 km/h (1 Bft) N 360 7,4 C 16,8 C 4,0 km/h (1 Bft)
04.06.2013 16:00 14,5 C 58 % 1021,4 hPa 0,0 l/m 5,0 km/h (1 Bft) W-NW 292 6,3 C 16,7 C 3,4 km/h (1 Bft)
04.06.2013 16:05 14,9 C 57 % 1021,4 hPa 0,0 l/m 4,8 km/h (1 Bft) N-NW 337 6,5 C 16,6 C 6,4 km/h (2 Bft)
04.06.2013 16:10 14,8 C 56 % 1021,4 hPa 0,0 l/m 4,2 km/h (1 Bft) W-NW 292 6,1 C 17,0 C 3,5 km/h (1 Bft)
04.06.2013 16:15 15,9 C 51 % 1021,4 hPa 0,0 l/m 5,1 km/h (1 Bft) W-SW 247 5,8 C 18,3 C 7,6 km/h (2 Bft)
04.06.2013 16:20 15,1 C 55 % 1021,4 hPa 0,0 l/m 5,6 km/h (1 Bft) W-NW 292 6,1 C 18,2 C 11,7 km/h (2 Bft)
04.06.2013 16:25 15,1 C 56 % 1021,4 hPa 0,0 l/m 5,6 km/h (1 Bft) N 360 6,4 C 17,9 C 3,7 km/h (1 Bft)
04.06.2013 16:30 15,7 C 57 % 1021,4 hPa 0,0 l/m 4,3 km/h (1 Bft) N-NW 337 7,2 C 18,3 C 4,8 km/h (1 Bft)
04.06.2013 16:35 16,0 C 50 % 1021,4 hPa 0,0 l/m 4,3 km/h (1 Bft) N 360 5,6 C 19,3 C 2,6 km/h (1 Bft)
04.06.2013 16:40 15,9 C 49 % 1021,5 hPa 0,0 l/m 5,1 km/h (1 Bft) N 360 5,2 C 20,1 C 15,6 km/h (3 Bft)
04.06.2013 16:45 16,0 C 50 % 1021,5 hPa 0,0 l/m 5,5 km/h (1 Bft) W-NW 292 5,6 C 20,4 C 4,0 km/h (1 Bft)
04.06.2013 16:50 15,9 C 49 % 1021,5 hPa 0,0 l/m 5,5 km/h (1 Bft) NW 315 5,2 C 20,4 C 15,6 km/h (3 Bft)
04.06.2013 16:55 15,3 C 49 % 1021,5 hPa 0,0 l/m 5,0 km/h (1 Bft) W 270 4,7 C 19,5 C 8,5 km/h (2 Bft)
04.06.2013 17:00 15,0 C 51 % 1021,7 hPa 0,0 l/m 5,3 km/h (1 Bft) S 180 4,9 C 18,6 C 7,7 km/h (2 Bft)
04.06.2013 17:05 14,2 C 51 % 1021,7 hPa 0,0 l/m 5,3 km/h (1 Bft) W-NW 292 4,2 C 17,1 C 5,0 km/h (1 Bft)
04.06.2013 17:10 14,2 C 52 % 1021,7 hPa 0,0 l/m 5,1 km/h (1 Bft) W-NW 292 4,5 C 16,1 C 5,1 km/h (1 Bft)
04.06.2013 17:15 13,6 C 56 % 1021,7 hPa 0,0 l/m 5,1 km/h (1 Bft) NW 315 5,0 C 15,0 C 8,2 km/h (2 Bft)
04.06.2013 17:20 13,5 C 57 % 1021,3 hPa 0,0 l/m 5,0 km/h (1 Bft) N-NW 337 5,2 C 14,6 C 3,5 km/h (1 Bft)
04.06.2013 17:25 13,0 C 57 % 1021,3 hPa 0,0 l/m 5,0 km/h (1 Bft) N-NW 337 4,7 C 14,2 C 5,8 km/h (2 Bft)
04.06.2013 17:30 13,4 C 57 % 1021,3 hPa 0,0 l/m 5,0 km/h (1 Bft) W-NW 292 5,1 C 14,8 C 5,8 km/h (2 Bft)
04.06.2013 17:35 14,2 C 58 % 1021,3 hPa 0,0 l/m 5,5 km/h (1 Bft) NO 45 6,1 C 17,1 C 9,8 km/h (2 Bft)
04.06.2013 17:40 14,4 C 58 % 1021,4 hPa 0,0 l/m 5,1 km/h (1 Bft) W-NW 292 6,2 C 18,0 C 3,9 km/h (1 Bft)
04.06.2013 17:45 14,5 C 56 % 1021,4 hPa 0,0 l/m 6,6 km/h (2 Bft) N-NW 337 5,8 C 18,7 C 10,9 km/h (2 Bft)
04.06.2013 17:50 14,5 C 57 % 1021,4 hPa 0,0 l/m 6,4 km/h (2 Bft) N-NW 337 6,1 C 18,1 C 5,5 km/h (1 Bft)
04.06.2013 17:55 14,3 C 57 % 1021,4 hPa 0,0 l/m 5,1 km/h (1 Bft) O-SO 112 5,9 C 17,2 C 4,8 km/h (1 Bft)
04.06.2013 18:00 14,0 C 57 % 1021,2 hPa 0,0 l/m 4,7 km/h (1 Bft) W-NW 292 5,6 C 16,5 C 6,9 km/h (2 Bft)
04.06.2013 18:05 14,1 C 58 % 1021,2 hPa 0,0 l/m 4,0 km/h (1 Bft) N 360 6,0 C 16,1 C 7,6 km/h (2 Bft)
04.06.2013 18:10 13,7 C 56 % 1021,2 hPa 0,0 l/m 4,7 km/h (1 Bft) N 360 5,1 C 15,9 C 10,0 km/h (2 Bft)
04.06.2013 18:15 13,5 C 58 % 1021,2 hPa 0,0 l/m 5,5 km/h (1 Bft) N-NW 337 5,4 C 15,4 C 10,3 km/h (2 Bft)
04.06.2013 18:20 13,3 C 58 % 1021,1 hPa 0,0 l/m 4,7 km/h (1 Bft) N-NW 337 5,2 C 15,1 C 1,9 km/h (1 Bft)
04.06.2013 18:25 13,3 C 58 % 1021,1 hPa 0,0 l/m 5,3 km/h (1 Bft) W-NW 292 5,2 C 14,5 C 10,5 km/h (2 Bft)
04.06.2013 18:30 13,0 C 58 % 1021,1 hPa 0,0 l/m 4,8 km/h (1 Bft) W-SW 247 4,9 C 14,2 C 7,7 km/h (2 Bft)
04.06.2013 18:35 12,9 C 60 % 1021,1 hPa 0,0 l/m 3,9 km/h (1 Bft) N-NW 337 5,3 C 14,0 C 2,7 km/h (1 Bft)
04.06.2013 18:40 13,0 C 61 % 1020,9 hPa 0,0 l/m 2,9 km/h (1 Bft) S 180 5,7 C 13,9 C 2,3 km/h (1 Bft)
04.06.2013 18:45 12,8 C 63 % 1020,9 hPa 0,0 l/m 3,2 km/h (1 Bft) N 360 5,9 C 13,9 C 3,4 km/h (1 Bft)
04.06.2013 18:50 13,0 C 63 % 1020,9 hPa 0,0 l/m 3,9 km/h (1 Bft) NW 315 6,1 C 13,8 C 8,4 km/h (2 Bft)
04.06.2013 18:55 12,9 C 64 % 1020,9 hPa 0,0 l/m 4,2 km/h (1 Bft) N-NW 337 6,3 C 13,7 C 4,8 km/h (1 Bft)
04.06.2013 19:00 12,9 C 65 % 1020,7 hPa 0,0 l/m 3,9 km/h (1 Bft) W-NW 292 6,5 C 13,8 C 4,7 km/h (1 Bft)
04.06.2013 19:05 13,0 C 64 % 1020,7 hPa 0,0 l/m 3,4 km/h (1 Bft) N-NW 337 6,4 C 14,2 C 8,4 km/h (2 Bft)
04.06.2013 19:10 12,9 C 65 % 1020,7 hPa 0,0 l/m 3,5 km/h (1 Bft) NW 315 6,5 C 14,4 C 4,7 km/h (1 Bft)
04.06.2013 19:15 12,9 C 64 % 1020,7 hPa 0,0 l/m 4,0 km/h (1 Bft) W-NW 292 6,3 C 14,4 C 6,0 km/h (2 Bft)
04.06.2013 19:20 13,2 C 63 % 1020,8 hPa 0,0 l/m 3,7 km/h (1 Bft) W-NW 292 6,3 C 15,2 C 4,5 km/h (1 Bft)
04.06.2013 19:25 13,5 C 63 % 1020,8 hPa 0,0 l/m 4,0 km/h (1 Bft) NW 315 6,6 C 16,5 C 5,8 km/h (2 Bft)
04.06.2013 19:30 13,0 C 64 % 1020,8 hPa 0,0 l/m 4,2 km/h (1 Bft) W-NW 292 6,4 C 15,9 C 5,5 km/h (1 Bft)
04.06.2013 19:35 12,6 C 66 % 1020,8 hPa 0,0 l/m 3,9 km/h (1 Bft) N 360 6,4 C 14,8 C 7,2 km/h (2 Bft)
04.06.2013 19:40 12,4 C 67 % 1020,7 hPa 0,0 l/m 3,5 km/h (1 Bft) N 360 6,4 C 14,2 C 3,1 km/h (1 Bft)
04.06.2013 19:45 12,3 C 68 % 1020,7 hPa 0,0 l/m 3,2 km/h (1 Bft) N-NW 337 6,6 C 13,6 C 4,7 km/h (1 Bft)
04.06.2013 19:50 12,1 C 69 % 1020,7 hPa 0,0 l/m 2,9 km/h (1 Bft) NO 45 6,6 C 13,3 C 0,0 km/h (0 Bft)
04.06.2013 19:55 12,1 C 69 % 1020,7 hPa 0,0 l/m 3,1 km/h (1 Bft) NW 315 6,6 C 13,2 C 3,1 km/h (1 Bft)
04.06.2013 20:00 12,2 C 69 % 1020,8 hPa 0,0 l/m 2,6 km/h (1 Bft) N-NW 337 6,7 C 13,4 C 4,0 km/h (1 Bft)
04.06.2013 20:05 12,4 C 71 % 1020,8 hPa 0,0 l/m 1,8 km/h (1 Bft) O 90 7,3 C 14,1 C 2,4 km/h (1 Bft)
04.06.2013 20:10 12,6 C 71 % 1020,8 hPa 0,0 l/m 1,3 km/h (1 Bft) O-NO 67 7,5 C 15,2 C 1,9 km/h (1 Bft)
04.06.2013 20:15 12,3 C 71 % 1020,8 hPa 0,0 l/m 1,8 km/h (1 Bft) O-NO 67 7,2 C 16,1 C 3,4 km/h (1 Bft)
04.06.2013 20:20 12,1 C 71 % 1020,6 hPa 0,0 l/m 1,9 km/h (1 Bft) N-NO 22 7,0 C 16,1 C 2,4 km/h (1 Bft)
04.06.2013 20:25 11,5 C 72 % 1020,6 hPa 0,0 l/m 1,3 km/h (1 Bft) O 90 6,6 C 15,3 C 2,3 km/h (1 Bft)
04.06.2013 20:30 11,1 C 72 % 1020,6 hPa 0,0 l/m 0,8 km/h (0 Bft) O 90 6,2 C 15,0 C 0,0 km/h (0 Bft)
04.06.2013 20:35 10,5 C 73 % 1020,6 hPa 0,0 l/m 0,8 km/h (0 Bft) O-NO 67 5,9 C 14,1 C 1,8 km/h (1 Bft)
04.06.2013 20:40 10,3 C 74 % 1020,6 hPa 0,0 l/m 1,0 km/h (0 Bft) NO 45 5,9 C 13,4 C 0,0 km/h (0 Bft)
04.06.2013 20:45 9,9 C 75 % 1020,6 hPa 0,0 l/m 1,8 km/h (1 Bft) NO 45 5,7 C 12,1 C 2,9 km/h (1 Bft)
04.06.2013 20:50 9,7 C 76 % 1020,6 hPa 0,0 l/m 2,1 km/h (1 Bft) NO 45 5,7 C 11,3 C 2,7 km/h (1 Bft)
04.06.2013 20:55 9,3 C 77 % 1020,6 hPa 0,0 l/m 2,4 km/h (1 Bft) O-NO 67 5,5 C 10,3 C 2,7 km/h (1 Bft)
04.06.2013 21:00 9,1 C 77 % 1020,3 hPa 0,0 l/m 2,4 km/h (1 Bft) NO 45 5,3 C 9,9 C 2,9 km/h (1 Bft)
04.06.2013 21:05 8,9 C 79 % 1020,3 hPa 0,0 l/m 2,7 km/h (1 Bft) O 90 5,5 C 9,3 C 3,4 km/h (1 Bft)
04.06.2013 21:10 8,8 C 80 % 1020,3 hPa 0,0 l/m 2,9 km/h (1 Bft) O-NO 67 5,5 C 8,9 C 3,5 km/h (1 Bft)
04.06.2013 21:15 8,5 C 80 % 1020,3 hPa 0,0 l/m 3,1 km/h (1 Bft) O 90 5,3 C 8,6 C 2,7 km/h (1 Bft)
04.06.2013 21:20 8,4 C 81 % 1019,8 hPa 0,0 l/m 2,7 km/h (1 Bft) O 90 5,3 C 8,4 C 3,1 km/h (1 Bft)
04.06.2013 21:25 8,4 C 82 % 1019,8 hPa 0,0 l/m 2,3 km/h (1 Bft) NO 45 5,5 C 8,2 C 1,6 km/h (1 Bft)
04.06.2013 21:30 8,3 C 82 % 1019,8 hPa 0,0 l/m 1,9 km/h (1 Bft) O 90 5,4 C 8,1 C 2,6 km/h (1 Bft)
04.06.2013 21:35 8,3 C 82 % 1019,8 hPa 0,0 l/m 1,1 km/h (1 Bft) O 90 5,4 C 7,9 C 0,0 km/h (0 Bft)
04.06.2013 21:40 8,2 C 83 % 1019,9 hPa 0,0 l/m 0,8 km/h (0 Bft) O 90 5,5 C 7,7 C 0,0 km/h (0 Bft)
04.06.2013 21:45 8,0 C 83 % 1019,9 hPa 0,0 l/m 0,0 km/h (0 Bft) N-NO 22 5,3 C 7,5 C 0,0 km/h (0 Bft)
04.06.2013 21:50 7,7 C 83 % 1019,9 hPa 0,0 l/m 0,0 km/h (0 Bft) N-NW 337 5,0 C 7,4 C 0,0 km/h (0 Bft)
04.06.2013 21:55 7,5 C 83 % 1019,9 hPa 0,0 l/m 0,0 km/h (0 Bft) N-NW 337 4,8 C 7,3 C 0,0 km/h (0 Bft)
04.06.2013 22:00 7,3 C 84 % 1020,1 hPa 0,0 l/m 0,0 km/h (0 Bft) S 180 4,8 C 7,2 C 0,0 km/h (0 Bft)
04.06.2013 22:05 7,2 C 84 % 1020,1 hPa 0,0 l/m 0,2 km/h (0 Bft) S 180 4,7 C 7,1 C 0,0 km/h (0 Bft)
04.06.2013 22:10 7,1 C 85 % 1020,1 hPa 0,0 l/m 0,2 km/h (0 Bft) S-SO 157 4,8 C 7,0 C 0,0 km/h (0 Bft)
04.06.2013 22:15 7,2 C 85 % 1020,1 hPa 0,0 l/m 0,2 km/h (0 Bft) O-SO 112 4,9 C 6,9 C 0,0 km/h (0 Bft)
04.06.2013 22:20 7,3 C 86 % 1020,2 hPa 0,0 l/m 0,2 km/h (0 Bft) NO 45 5,1 C 6,9 C 0,0 km/h (0 Bft)
04.06.2013 22:25 7,3 C 86 % 1020,2 hPa 0,0 l/m 0,2 km/h (0 Bft) O-NO 67 5,1 C 6,8 C 0,0 km/h (0 Bft)
04.06.2013 22:30 7,2 C 86 % 1020,2 hPa 0,0 l/m 0,2 km/h (0 Bft) N-NO 22 5,0 C 6,8 C 0,0 km/h (0 Bft)
04.06.2013 22:35 7,2 C 87 % 1020,2 hPa 0,0 l/m 0,3 km/h (0 Bft) O 90 5,2 C 6,8 C 0,0 km/h (0 Bft)
04.06.2013 22:40 6,9 C 87 % 1020,2 hPa 0,0 l/m 0,2 km/h (0 Bft) W-SW 247 4,9 C 6,6 C 0,0 km/h (0 Bft)
04.06.2013 22:45 6,5 C 87 % 1020,2 hPa 0,0 l/m 0,0 km/h (0 Bft) O-SO 112 4,5 C 6,4 C 0,0 km/h (0 Bft)
04.06.2013 22:50 6,4 C 87 % 1020,2 hPa 0,0 l/m 0,0 km/h (0 Bft) O-SO 112 4,4 C 6,3 C 0,0 km/h (0 Bft)
04.06.2013 22:55 6,3 C 87 % 1020,2 hPa 0,0 l/m 0,0 km/h (0 Bft) NO 45 4,3 C 6,0 C 0,0 km/h (0 Bft)
04.06.2013 23:00 6,3 C 88 % 1020,2 hPa 0,0 l/m 0,0 km/h (0 Bft) N 360 4,5 C 6,0 C 0,0 km/h (0 Bft)
04.06.2013 23:05 6,2 C 88 % 1020,2 hPa 0,0 l/m 0,0 km/h (0 Bft) NO 45 4,4 C 5,9 C 0,0 km/h (0 Bft)
04.06.2013 23:10 6,1 C 88 % 1020,2 hPa 0,0 l/m 0,0 km/h (0 Bft) O-NO 67 4,3 C 5,9 C 0,0 km/h (0 Bft)
04.06.2013 23:15 5,9 C 89 % 1020,2 hPa 0,0 l/m 0,0 km/h (0 Bft) NO 45 4,2 C 5,7 C 0,0 km/h (0 Bft)
04.06.2013 23:20 5,9 C 89 % 1020,4 hPa 0,0 l/m 0,0 km/h (0 Bft) O 90 4,2 C 5,6 C 0,0 km/h (0 Bft)
04.06.2013 23:25 6,2 C 89 % 1020,4 hPa 0,0 l/m 0,0 km/h (0 Bft) NO 45 4,5 C 5,7 C 0,0 km/h (0 Bft)
04.06.2013 23:30 6,3 C 89 % 1020,4 hPa 0,0 l/m 0,0 km/h (0 Bft) O-NO 67 4,6 C 5,9 C 0,0 km/h (0 Bft)
04.06.2013 23:35 6,5 C 90 % 1020,4 hPa 0,0 l/m 0,6 km/h (0 Bft) O-SO 112 5,0 C 6,1 C 0,0 km/h (0 Bft)
04.06.2013 23:40 6,3 C 90 % 1020,3 hPa 0,0 l/m 0,6 km/h (0 Bft) SW 225 4,8 C 6,1 C 0,0 km/h (0 Bft)
04.06.2013 23:45 6,2 C 90 % 1020,3 hPa 0,0 l/m 0,0 km/h (0 Bft) W-NW 292 4,7 C 6,0 C 0,0 km/h (0 Bft)
04.06.2013 23:50 6,2 C 90 % 1020,3 hPa 0,0 l/m 0,0 km/h (0 Bft) W-NW 292 4,7 C 6,0 C 0,0 km/h (0 Bft)
04.06.2013 23:55 6,2 C 90 % 1020,3 hPa 0,0 l/m 0,0 km/h (0 Bft) W-NW 292 4,7 C 6,0 C 0,0 km/h (0 Bft)
_ Min-Zeit 00:30 16:55 21:35 - 23:55 - - 00:30 00:00 23:55
Minimum _ 3,5 C 49 % 1019,8 hPa - 0,0 km/h (0 Bft) - - 3,1 C 3,2 C 0,0 km/h (0 Bft)
_ Max-Zeit 16:45 06:55 00:15 01:05 17:45 - - 09:00 16:50 16:50
Maximum _ 16,0 C 97 % 1023,2 hPa 0,7 l/m 6,6 km/h
N-NW (2 Bft)
- - 9,9 C 20,4 C 15,6 km/h
NW (3 Bft)
Durchschnitt _ 8,9 C 81 % 1021,4 hPa #0,7 l/m 2,2 km/h (1 Bft) W-NW - 5,6 C 9,8 C 2,9 km/h (1 Bft)